Location: Pella
(41.4080°N, 92.9160°W)
Time: 13:25:48
(UTC-05:00)

Iridium 91 - Visible Passes

Search period start: 28 July 2014 00:00
Search period end: 07 August 2014 00:00
Orbit: 775 x 780 km, 86.4° (Epoch: 28 July)

Date Brightness Start Highest point End Pass type
(mag) Time Alt. Az. Time Alt. Az. Time Alt. Az.
28 Jul 7.5 04:38:27 10° SE 04:42:53 29° E 04:47:20 10° NNE visible
29 Jul 8.2 04:06:31 10° ESE 04:09:40 16° ENE 04:12:48 10° NE visible
30 Jul 5.7 05:11:06 10° S 05:16:17 78° E 05:21:30 10° N visible
31 Jul 6.8 04:38:01 10° SSE 04:42:52 42° E 04:47:45 10° NNE visible
01 Aug 7.7 04:05:32 10° SE 04:09:34 23° E 04:13:36 10° NNE visible
02 Aug 8.3 03:34:12 10° ESE 03:36:23 13° ENE 03:38:35 10° NE visible
02 Aug 5.5 05:11:12 10° S 05:16:23 73° W 05:21:36 10° N visible
03 Aug 6.0 04:37:47 10° SSE 04:42:53 61° E 04:48:01 10° N visible
04 Aug 7.1 04:04:55 10° SSE 04:09:31 33° E 04:14:08 10° NNE visible
05 Aug 7.9 03:32:47 10° ESE 03:36:16 19° E 03:39:46 10° NE visible
05 Aug 5.8 05:11:30 10° SSW 05:16:32 50° W 05:21:36 10° N visible
06 Aug 5.5 04:37:55 11° S 04:42:57 88° E 04:48:11 10° N visible
